map of LBF home
Great Circle Mapper logo
LBF - Airport
Location
City:  North Platte, Nebraska, United States
Name:North Platte Regional Airport Lee Bird Field
ICAO / IATA:KLBF / LBF
FAA:LBF

Details
Type:Airport (Part 139 Class II)
Use:Public/Civil
Latitude:4107'34"N (41.126222)
Longitude:10041'01"W (-100.683666)
Datum:WGS 1984
Elevation:2777 ft (846 m)
Runways:2
Longest:8001 × 150 ft (2439 × 45.5 m), paved

Time
Time Zone:UTC-6 (DST-5)
Local Time:

Weather
METAR:KLBF 011053Z AUTO 26005KT 10SM CLR 09/09 A2993 RMK AO2 SLP122 T00940089
TAF:KLBF 010520Z 0106/0206 34008KT P6SM SCT120
FM012100 25006KT P6SM SCT100
FM020000 VRB06KT P6SM SCT100

Related Locations
Nearby:
Farthest:RRG: 10688 mi / 17200 km
Plaine Corail, Rodrigues Island, MU

Find:

   beyond  
but within

Other Information
Maps:
NOTAMs:
Links:
Sources:

  
flag of United States
flag of Nebraska
  

Airport Diagram

Airport diagram for LBF

Airport diagram PDF

Sectional Chart

Flight Planning
at skyvector.com

Satellite Image

Google Maps Satellite View

 

Copyright © 2004-2014 Karl L. Swartz. All rights reserved.
The Great Circle Mapper name and logo are trademarks of the Great Circle Mapper.
All other trademarks mentioned herein belong to their respective owners.
Please see credits for attibutions and further copyright information.

  Follow gcmap on Facebook Follow gcmap on Twitter

hCard Microformat

Geo Microformat